Location: Bullenkuhlen
(53.7689°N, 9.7495°E)
Time: 22:01:30
(UTC+00:00)

Cosmos 1892 - Pass Details

Date: 09 April 2020
Orbit: 503 x 525 km, 82.5° (Epoch: 26 May)

Event Time Altitude Azimuth Distance (km) Brightness Sun altitude
Rises 19:54:12 0° 350° (N) 2,676 7.1 -14.4°
Reaches altitude 10° 19:56:22 10° 353° (N) 1,783 6.1 -14.6°
Maximum altitude 20:00:17 70° 77° (ENE) 567 2.7 -15.1°
Enters shadow 20:02:22 26° 156° (SSE) 1,063 3.8 -15.3°
